Vorticity
7 4 7 7 11 12 4 4 8 3 6 4 8 2 12 24 6 5 3 10 12 9 4 10 19 -1 24 -10 -4 11 4 4 10 -2 -3 4 21 12 7 3 9 5 3
6 10 2 14 6 -1 1 5 7 5 4 4 5 0 16 20 7 7 2 8 10 10 9 6 8 11 7 -5 23 36 7 0 9 6 3 12 21 29 2 8 5 3 3
11 4 15 1 -11 11 6 7 9 4 2 5 7 2 19 17 6 10 4 5 9 8 7 6 6 19 3 19 46 15 -11 7 -1 6 -2 9 27 9 4 4 4 3 3
9 13 8 13 14 12 8 10 7 3 4 7 4 4 26 12 4 6 2 6 9 6 7 9 7 14 -6 51 22 -4 29 -6 1 7 5 15 12 0 6 2 4 3 4
22 9 10 11 11 5 9 10 9 4 4 7 3 6 28 11 4 6 7 5 12 5 7 10 10 22 -16 83 11 21 -6 7 -2 18 6 15 6 6 4 3 4 2 2
10 11 10 6 9 9 11 8 -3 4 3 9 2 6 29 9 7 2 7 5 12 6 2 7 12 21 -6 95 -10 14 12 -12 -1 8 1 8 3 7 1 7 3 4 4
5 5 5 6 10 7 9 2 7 4 8 8 3 7 26 8 7 3 6 6 11 5 1 11 11 18 -3 71 0 -3 29 13 -1 1 10 -3 6 2 5 0 5 4 3
14 7 1 -0 -4 1 12 3 8 5 7 9 4 10 26 6 4 3 10 5 9 6 1 16 11 10 -10 43 34 5 9 3 5 7 3 7 -0 5 8 6 0 7 3
12 8 8 6 11 14 14 17 7 9 6 8 5 12 21 4 5 7 9 4 8 4 2 15 10 17 -1 57 19 4 28 5 16 3 -6 0 13 3 15 13 9 4 4
10 11 12 10 2 1 13 9 10 9 4 5 5 12 14 5 5 9 8 5 9 3 -1 19 12 18 10 47 11 1 29 17 12 14 4 8 8 7 5 7 4 7 9
12 17 14 10 13 24 7 -4 5 9 5 6 6 12 15 6 11 9 3 4 9 3 2 19 15 13 -0 -3 42 23 1 4 11 -6 12 5 14 10 8 3 11 9 13
13 10 13 16 13 14 14 10 4 11 7 6 7 9 18 9 6 15 1 9 8 1 3 18 10 8 11 3 -22 20 22 5 22 19 -0 10 5 19 6 8 3 1 4
8 10 11 10 14 11 15 16 13 8 7 13 3 7 17 16 6 8 3 11 7 1 6 16 7 8 2 4 19 -7 -3 36 20 20 7 22 17 5 0 7 6 4 5
8 9 10 13 8 11 13 18 11 1 13 11 4 8 13 20 5 10 5 11 6 2 5 8 17 6 10 5 -16 25 -14 13 16 5 10 -6 12 6 5 4 8 -2 5
7 7 10 11 9 10 12 11 17 11 13 5 9 9 12 19 8 6 6 9 6 3 5 7 7 17 3 -3 -9 28 36 5 18 16 21 6 -4 10 -0 -0 31 -12 15
4 7 7 10 11 12 15 11 10 17 14 8 10 4 12 20 11 8 10 6 6 2 7 6 6 17 13 -1 3 62 43 3 1 25 15 -3 -3 1 2 4 6 17 18
6 9 13 15 9 13 13 16 15 13 13 9 3 16 26 19 16 5 8 3 6 3 7 8 2 10 21 10 -1 61 22 21 10 27 6 4 -2 15 20 36 39 10 4
11 13 11 16 15 15 18 14 13 15 12 4 20 26 22 19 12 4 9 -0 6 3 4 6 6 8 19 14 6 1 31 10 32 14 16 26 10 -2 5 26 4 4 3
16 20 7 8 18 19 16 16 14 16 14 17 19 20 24 10 6 6 12 1 8 3 4 6 6 4 9 16 11 8 2 19 30 42 55 31 37 31 16 -5 13 5 2
26 24 18 12 12 13 15 10 11 14 22 -4 8 19 36 4 -0 10 5 -0 10 4 5 5 4 6 6 9 12 15 13 5 7 12 4 7 16 9 3 -19 -6 -0 8
16 22 26 21 18 16 15 14 10 18 17 3 60 11 34 -7 18 3 8 6 2 11 5 3 4 3 5 5 7 8 11 11 11 7 6 -2 6 -6 -2 5 7 9 14
19 15 20 20 22 17 12 19 12 19 14 4 25 2 33 13 -1 6 10 1 2 22 6 4 2 3 5 7 6 7 6 7 10 12 13 13 12 12 13 12 11 10 4
26 18 12 18 17 5 5 23 15 19 14 13 -1 -6 67 31 24 17 8 6 -16 54 3 3 1 4 3 2 5 6 8 7 6 8 7 11 8 5 1 2 5 4 1
18 13 18 17 11 1 15 18 15 16 7 32 18 63 -40 14 -12 2 4 12 -4 -5 30 2 1 10 3 4 4 5 6 6 6 6 6 3 4 4 -0 9 2 3 8
20 14 16 12 3 9 32 30 22 15 20 30 2 2 40 -10 -9 -1 -0 -2 4 9 13 3 15 14 7 9 4 5 5 5 5 5 8 4 -3 7 0 8 11 3 -1
7 19 18 29 14 32 14 12 33 25 22 9 61 12 39 39 33 -18 4 6 -8 9 11 14 6 23 -4 14 -2 10 8 3 7 17 6 10 11 7 3 5 7 9 5
Height
5712 5712 5715 5716 5722 5725 5728 5731 5733 5734 5734 5734 5733 5732 5731 5730 5732 5732 5732 5733 5734 5734 5733 5733 5732 5732 5733 5733 5729 5738 5741 5745 5748 5751 5752 5757 5759 5762 5766 5770 5773 5777 5780
5700 5703 5704 5709 5712 5715 5718 5722 5724 5725 5726 5725 5725 5725 5722 5722 5724 5725 5726 5725 5726 5729 5727 5726 5726 5726 5726 5727 5726 5729 5734 5739 5742 5746 5748 5751 5754 5757 5764 5766 5771 5773 5776
5691 5692 5696 5698 5701 5705 5709 5712 5714 5716 5717 5716 5717 5717 5714 5714 5717 5718 5718 5718 5719 5719 5720 5719 5718 5718 5718 5717 5717 5720 5726 5733 5736 5741 5745 5747 5751 5756 5759 5763 5766 5769 5771
5680 5683 5686 5688 5691 5695 5699 5702 5705 5707 5708 5708 5709 5709 5706 5707 5709 5710 5711 5712 5713 5713 5712 5711 5709 5709 5708 5706 5708 5714 5718 5724 5730 5735 5740 5743 5745 5752 5755 5759 5761 5764 5766
5671 5674 5676 5679 5681 5686 5689 5692 5695 5698 5700 5700 5701 5699 5698 5699 5701 5703 5705 5706 5708 5707 5706 5704 5702 5700 5699 5696 5701 5707 5712 5718 5723 5728 5734 5738 5743 5747 5749 5752 5755 5758 5761
5660 5662 5666 5669 5671 5675 5680 5683 5686 5688 5690 5691 5693 5691 5691 5692 5694 5696 5698 5700 5701 5700 5700 5698 5695 5692 5689 5687 5691 5697 5703 5710 5716 5722 5728 5733 5737 5742 5744 5746 5749 5752 5755
5649 5651 5655 5659 5661 5665 5669 5674 5676 5678 5681 5682 5684 5683 5683 5685 5687 5689 5691 5693 5695 5695 5694 5692 5690 5685 5682 5680 5686 5690 5696 5704 5711 5717 5721 5727 5730 5734 5736 5740 5743 5747 5751
5639 5641 5644 5648 5651 5654 5658 5664 5666 5669 5672 5674 5676 5675 5676 5678 5680 5682 5685 5687 5689 5688 5688 5687 5684 5680 5676 5674 5678 5684 5690 5697 5704 5710 5715 5720 5724 5725 5730 5733 5739 5742 5744
5628 5631 5634 5637 5640 5644 5648 5651 5656 5660 5662 5665 5667 5667 5669 5670 5672 5675 5678 5680 5682 5683 5681 5681 5679 5675 5673 5670 5672 5679 5683 5690 5697 5703 5707 5711 5717 5717 5723 5726 5730 5735 5737
5618 5621 5622 5625 5629 5633 5638 5642 5645 5649 5652 5655 5659 5659 5660 5663 5665 5668 5671 5674 5674 5676 5676 5675 5674 5671 5670 5668 5668 5673 5677 5683 5690 5695 5700 5704 5708 5711 5717 5720 5725 5728 5730
5608 5611 5614 5615 5618 5622 5627 5632 5636 5639 5642 5646 5649 5651 5651 5654 5658 5661 5664 5666 5668 5669 5671 5670 5669 5668 5668 5667 5664 5667 5672 5678 5683 5688 5692 5697 5700 5705 5710 5714 5716 5720 5722
5598 5601 5605 5606 5608 5611 5615 5621 5626 5630 5632 5636 5639 5642 5643 5645 5650 5654 5657 5659 5662 5664 5664 5664 5665 5664 5665 5665 5664 5664 5667 5671 5676 5681 5685 5690 5694 5698 5702 5706 5710 5711 5712
5588 5589 5593 5595 5598 5601 5604 5608 5614 5620 5623 5626 5629 5631 5634 5637 5641 5647 5649 5652 5655 5657 5658 5659 5659 5659 5660 5659 5659 5659 5662 5665 5669 5674 5680 5684 5688 5691 5695 5699 5701 5703 5703
5578 5580 5581 5583 5586 5591 5593 5597 5603 5608 5613 5616 5618 5621 5625 5628 5632 5638 5642 5646 5648 5650 5652 5652 5653 5653 5654 5654 5653 5653 5655 5658 5662 5666 5672 5676 5681 5684 5688 5691 5694 5696 5695
5567 5569 5570 5572 5576 5580 5583 5586 5592 5596 5601 5605 5608 5611 5615 5618 5623 5630 5634 5639 5642 5644 5646 5646 5646 5646 5647 5648 5647 5645 5646 5650 5655 5659 5664 5668 5675 5676 5680 5683 5686 5687 5688
5556 5558 5560 5562 5564 5570 5572 5574 5581 5586 5590 5594 5596 5600 5604 5608 5615 5622 5627 5632 5634 5637 5640 5641 5641 5640 5640 5641 5640 5634 5635 5641 5647 5652 5658 5662 5666 5668 5671 5673 5677 5677 5679
5548 5549 5549 5551 5554 5559 5563 5564 5568 5574 5578 5582 5585 5588 5592 5597 5605 5612 5618 5623 5627 5630 5633 5635 5636 5635 5635 5635 5634 5628 5630 5634 5639 5643 5648 5653 5657 5659 5662 5663 5668 5670 5672
5536 5537 5538 5539 5542 5549 5552 5555 5558 5562 5566 5571 5574 5577 5582 5588 5596 5603 5609 5615 5619 5622 5626 5630 5630 5630 5630 5630 5630 5628 5627 5629 5631 5634 5638 5643 5646 5650 5653 5656 5660 5663 5666
5523 5525 5526 5528 5532 5537 5541 5543 5547 5551 5555 5560 5564 5567 5572 5580 5587 5593 5601 5606 5611 5615 5619 5623 5625 5625 5625 5625 5626 5627 5627 5627 5628 5630 5632 5636 5639 5644 5648 5650 5653 5656 5657
5512 5512 5514 5517 5520 5524 5528 5532 5537 5540 5545 5550 5554 5558 5564 5571 5578 5587 5591 5598 5602 5607 5611 5615 5618 5620 5621 5621 5621 5622 5625 5626 5627 5629 5632 5634 5637 5642 5644 5645 5647 5648 5648
5504 5503 5503 5505 5509 5512 5516 5521 5525 5530 5534 5540 5539 5548 5554 5562 5571 5576 5582 5589 5594 5599 5603 5607 5611 5613 5616 5617 5617 5618 5620 5622 5624 5627 5629 5631 5634 5636 5637 5637 5638 5638 5639
5498 5497 5497 5500 5502 5505 5508 5510 5514 5520 5524 5531 5533 5538 5545 5554 5561 5567 5573 5580 5585 5589 5595 5599 5603 5606 5609 5612 5613 5614 5615 5617 5619 5621 5623 5625 5626 5627 5628 5629 5630 5630 5629
5493 5492 5493 5494 5497 5499 5501 5502 5505 5510 5514 5519 5521 5529 5533 5544 5551 5558 5564 5570 5575 5578 5584 5589 5593 5597 5600 5603 5605 5608 5609 5611 5613 5614 5616 5618 5619 5620 5621 5621 5620 5620 5619
5488 5488 5488 5490 5491 5493 5494 5495 5497 5501 5508 5511 5515 5515 5526 5535 5542 5550 5555 5561 5565 5569 5574 5579 5584 5588 5591 5594 5596 5599 5601 5603 5604 5606 5607 5608 5610 5611 5610 5610 5610 5609 5608
5484 5483 5483 5484 5485 5487 5487 5488 5489 5493 5499 5504 5507 5510 5512 5523 5531 5539 5546 5551 5557 5562 5565 5569 5573 5578 5583 5585 5588 5589 5591 5592 5594 5596 5597 5598 5599 5600 5600 5600 5598 5596 5594
5480 5478 5478 5478 5480 5481 5482 5483 5483 5485 5490 5496 5495 5503 5508 5514 5518 5529 5536 5541 5547 5552 5556 5561 5566 5569 5573 5576 5578 5579 5581 5582 5583 5585 5586 5587 5587 5588 5588 5586 5585 5583 5580